| time (UTC) | temp F | wind direction | speed knots | gust knots | rain 1hr in | rain 24hr in | rain mn in | humidity % | barometer mb |
| 20260503213051 | 63 | 253 | 4.3 | 9.6 | 0.00 | 0.14 | 0.09 | 50 | 1007.1 |
| 20260503211549 | 62 | 111 | 3.5 | 12.2 | 0.00 | 0.14 | 0.09 | 50 | 1007.4 |
| 20260503210047 | 63 | 162 | 3.5 | 12.2 | 0.00 | 0.14 | 0.09 | 48 | 1007.7 |
| 20260503204524 | 64 | 135 | 2.6 | 10.4 | 0.00 | 0.14 | 0.09 | 50 | 1007.8 |
| 20260503203014 | 64 | 203 | 5.2 | 13.0 | 0.00 | 0.14 | 0.09 | 47 | 1007.8 |
| 20260503201510 | 64 | 241 | 5.2 | 13.9 | 0.00 | 0.14 | 0.09 | 49 | 1007.9 |
| 20260503200007 | 63 | 148 | 4.3 | 11.3 | 0.00 | 0.14 | 0.09 | 51 | 1008.0 |
| 20260503194503 | 62 | 241 | 4.3 | 11.3 | 0.00 | 0.14 | 0.09 | 55 | 1008.5 |
| 20260503193108 | 60 | 141 | 1.7 | 5.2 | 0.00 | 0.14 | 0.09 | 66 | 1008.7 |
| 20260503191557 | 58 | 169 | 1.7 | 5.2 | 0.01 | 0.14 | 0.09 | 70 | 1009.0 |
| 20260503190048 | 55 | 152 | 0.0 | 4.3 | 0.03 | 0.14 | 0.09 | 78 | 1009.4 |
| 20260503184544 | 51 | 159 | 0.0 | 2.6 | 0.06 | 0.14 | 0.09 | 84 | 1009.8 |
| 20260503183042 | 49 | 210 | 0.0 | 3.5 | 0.07 | 0.14 | 0.09 | 84 | 1010.2 |
| 20260503181553 | 48 | 155 | 0.0 | 2.6 | 0.07 | 0.13 | 0.08 | 83 | 1010.8 |
| 20260503180041 | 49 | 208 | 0.0 | 1.7 | 0.05 | 0.10 | 0.05 | 82 | 1012.2 |
| 20260503174528 | 50 | 147 | 0.0 | 7.8 | 0.04 | 0.08 | 0.03 | 80 | 1012.4 |
| 20260503173026 | 49 | 113 | 0.9 | 2.6 | 0.05 | 0.07 | 0.02 | 83 | 1012.6 |
| 20260503171524 | 49 | 219 | 0.9 | 3.5 | 0.06 | 0.06 | 0.01 | 82 | 1012.9 |
| 20260503150133 | 55 | 255 | 1.7 | 8.7 | 0.00 | 0.00 | 0.00 | 59 | 1013.4 |
| 20260503081526 | 45 | 238 | 0.9 | 5.2 | 0.00 | 0.00 | 0.00 | 58 | 1014.6 |
| 20260503071550 | 43 | 252 | 0.0 | 0.9 | 0.00 | 0.00 | 0.00 | 62 | 1014.8 |
| 20260503054537 | 43 | 257 | 0.0 | 0.9 | 0.00 | 0.00 | 0.00 | 66 | 1015.6 |
| 20260503053059 | 43 | 207 | 0.0 | 1.7 | 0.00 | 0.00 | 0.00 | 66 | 1015.7 |
| 20260503051557 | 43 | 246 | 0.0 | 1.7 | 0.00 | 0.00 | 0.00 | 66 | 1015.8 |
| 20260503050054 | 43 | 231 | 0.0 | 1.7 | 0.00 | 0.00 | 0.00 | 67 | 1015.8 |
| 20260503044609 | 43 | 247 | 0.0 | 0.9 | 0.00 | 0.00 | 0.00 | 67 | 1016.0 |
| 20260503043056 | 43 | 243 | 0.0 | 0.9 | 0.00 | 0.00 | 0.00 | 67 | 1016.0 |
| 20260503041608 | 43 | 254 | 0.0 | 0.9 | 0.00 | 0.00 | 0.00 | 67 | 1016.0 |
| 20260503040051 | 43 | 238 | 0.0 | 0.9 | 0.00 | 0.00 | 0.00 | 66 | 1016.1 |
| 20260503034545 | 43 | 233 | 0.0 | 0.9 | 0.00 | 0.00 | 0.00 | 66 | 1016.1 |
| 20260503033052 | 43 | 213 | 0.0 | 0.9 | 0.00 | 0.00 | 0.00 | 67 | 1016.1 |
| 20260503031542 | 43 | 233 | 0.0 | 0.9 | 0.00 | 0.00 | 0.00 | 67 | 1016.2 |
| 20260503030040 | 44 | 261 | 0.0 | 0.9 | 0.00 | 0.00 | 0.00 | 67 | 1016.3 |
| 20260503024539 | 43 | 249 | 0.0 | 0.0 | 0.00 | 0.00 | 0.00 | 68 | 1016.3 |
| 20260503023035 | 43 | 257 | 0.0 | 0.9 | 0.00 | 0.00 | 0.00 | 67 | 1016.2 |
| 20260503021531 | 44 | 257 | 0.0 | 0.0 | 0.00 | 0.00 | 0.00 | 65 | 1016.2 |
| 20260503020030 | 44 | 257 | 0.0 | 0.9 | 0.00 | 0.00 | 0.00 | 63 | 1016.2 |
| 20260503014517 | 45 | 257 | 0.0 | 0.0 | 0.00 | 0.00 | 0.00 | 62 | 1016.1 |
| 20260503013014 | 47 | 257 | 0.0 | 0.0 | 0.00 | 0.00 | 0.00 | 59 | 1015.9 |
| 20260503011523 | 47 | 257 | 0.0 | 0.0 | 0.00 | 0.00 | 0.00 | 58 | 1015.9 |
| 20260503010009 | 48 | 257 | 0.0 | 0.0 | 0.00 | 0.00 | 0.00 | 54 | 1015.9 |
| 20260503004502 | 50 | 257 | 0.0 | 0.0 | 0.00 | 0.00 | 0.00 | 50 | 1015.9 |
| 20260503003103 | 51 | 257 | 0.0 | 0.9 | 0.00 | 0.00 | 0.00 | 48 | 1016.0 |
| 20260503001601 | 52 | 240 | 0.0 | 2.6 | 0.00 | 0.00 | 0.00 | 46 | 1016.0 |
| 20260503000152 | 53 | 237 | 0.9 | 4.3 | 0.00 | 0.00 | 0.00 | 45 | 1016.0 |
| 20260502234553 | 54 | 168 | 1.7 | 9.6 | 0.00 | 0.00 | 0.00 | 43 | 1016.0 |
| 20260502233048 | 54 | 251 | 0.0 | 1.7 | 0.00 | 0.00 | 0.00 | 45 | 1016.1 |
| 20260502231546 | 54 | 287 | 0.9 | 2.6 | 0.00 | 0.00 | 0.00 | 43 | 1016.2 |
| 20260502230045 | 54 | 200 | 0.9 | 6.1 | 0.00 | 0.00 | 0.00 | 43 | 1016.4 |
| 20260502224514 | 55 | 317 | 0.0 | 5.2 | 0.00 | 0.00 | 0.00 | 43 | 1016.3 |
| 20260502223014 | 55 | 314 | 0.9 | 3.5 | 0.00 | 0.00 | 0.00 | 43 | 1016.4 |
| 20260502221513 | 55 | 330 | 0.0 | 4.3 | 0.00 | 0.00 | 0.00 | 40 | 1016.4 |
| 20260502220021 | 55 | 203 | 1.7 | 9.6 | 0.00 | 0.00 | 0.00 | 40 | 1016.3 |
| 20260502214510 | 56 | 266 | 0.0 | 3.5 | 0.00 | 0.00 | 0.00 | 39 | 1016.5 |